Total_Precipitation_Accumulation
0.04 0.07 0.12 0.12 0.09 0.08 0.08 0.08 0.09 0.13 0.19 0.29 0.40 0.46 0.53 0.56 0.56 0.57 0.52 0.52 0.66 0.79 0.93 0.92 0.85 0.78 0.83 1.05 1.24 1.46 1.71 1.79 1.81 1.88 1.98 2.11 2.25 2.29 2.29 2.29 2.24 2.38 2.35 2.26
0.06 0.08 0.09 0.08 0.07 0.07 0.07 0.07 0.08 0.13 0.22 0.32 0.42 0.46 0.45 0.49 0.48 0.52 0.61 0.67 0.80 0.95 1.06 1.16 1.20 1.18 1.22 1.37 1.62 1.89 2.18 2.31 2.43 2.49 2.55 2.60 2.64 2.66 2.70 2.66 2.60 2.52 2.40 2.42
0.12 0.12 0.12 0.10 0.09 0.09 0.09 0.11 0.12 0.18 0.27 0.41 0.54 0.51 0.57 0.62 0.59 0.67 0.73 0.83 0.94 1.05 1.12 1.25 1.31 1.39 1.55 1.72 1.95 2.15 2.32 2.43 2.57 2.68 2.80 2.90 2.92 2.91 2.79 2.73 2.64 2.51 2.51 2.55
0.19 0.23 0.25 0.15 0.16 0.19 0.22 0.25 0.28 0.30 0.37 0.46 0.58 0.60 0.63 0.67 0.65 0.68 0.80 0.97 1.01 1.07 1.17 1.24 1.38 1.55 1.71 1.81 1.95 2.25 2.43 2.49 2.56 2.62 2.72 2.86 3.02 2.95 2.79 2.71 2.65 2.59 2.55 2.44
0.32 0.29 0.31 0.30 0.27 0.29 0.38 0.47 0.44 0.59 0.66 0.61 0.64 0.69 0.71 0.71 0.86 0.88 0.88 0.97 1.03 1.13 1.23 1.34 1.40 1.46 1.49 1.57 1.74 1.96 2.18 2.33 2.33 2.45 2.65 2.75 2.79 2.80 2.83 2.77 2.58 2.44 2.32 2.26
0.47 0.49 0.46 0.45 0.47 0.38 0.43 0.76 0.76 0.85 0.94 0.88 0.90 1.07 0.99 0.76 0.76 0.83 0.91 0.98 1.09 1.22 1.28 1.28 1.30 1.32 1.39 1.53 1.75 1.95 2.17 2.35 2.49 2.58 2.73 2.78 2.83 2.92 2.93 2.86 2.81 2.76 2.60 2.46
0.53 0.58 0.57 0.50 0.46 0.47 0.80 1.07 1.05 1.12 1.15 1.08 1.13 1.15 1.06 0.90 0.85 0.83 0.89 0.96 1.06 1.21 1.35 1.35 1.36 1.50 1.62 1.75 1.91 2.08 2.20 2.28 2.39 2.54 2.69 2.91 3.10 3.04 3.00 2.94 2.83 2.63 2.44 2.30
0.74 0.94 1.05 0.77 0.69 0.91 1.07 0.85 0.90 1.08 1.29 1.31 1.24 1.16 1.08 0.99 0.91 0.82 0.78 0.86 1.04 1.17 1.31 1.45 1.57 1.72 1.84 1.87 1.93 2.08 2.27 2.34 2.39 2.54 2.59 2.67 2.81 2.79 2.73 2.72 2.70 2.62 2.56 2.48
1.07 1.24 1.13 0.95 0.97 0.91 0.98 1.11 1.18 1.28 1.48 1.49 1.35 1.22 1.21 1.13 1.00 0.90 0.88 0.94 1.05 1.17 1.30 1.39 1.57 1.76 1.90 1.99 2.06 2.14 2.24 2.36 2.50 2.57 2.60 2.70 2.82 2.83 2.74 2.64 2.57 2.46 2.38 2.20
1.27 1.42 1.25 1.09 1.06 1.02 1.07 1.26 1.33 1.30 1.33 1.34 1.29 1.22 1.34 1.35 1.19 1.14 1.15 1.14 1.17 1.25 1.32 1.40 1.49 1.66 1.86 1.98 2.02 2.13 2.19 2.24 2.37 2.50 2.61 2.74 2.75 2.64 2.50 2.33 2.24 2.17 2.08 1.98
1.54 1.73 1.66 1.47 1.33 1.23 1.24 1.20 1.28 1.21 1.24 1.23 1.23 1.21 1.28 1.39 1.45 1.38 1.26 1.20 1.23 1.30 1.37 1.42 1.48 1.56 1.78 1.98 2.04 2.05 2.15 2.20 2.18 2.21 2.28 2.40 2.45 2.41 2.28 2.15 2.04 1.97 1.86 1.84
1.89 1.90 2.00 1.87 1.54 1.36 1.41 1.36 1.30 1.26 1.34 1.38 1.33 1.26 1.27 1.40 1.45 1.43 1.35 1.30 1.29 1.31 1.35 1.40 1.50 1.61 1.68 1.92 2.16 2.22 2.19 2.06 1.96 1.88 1.87 1.90 1.90 1.96 2.09 1.97 1.96 1.83 1.71 1.64
1.59 1.84 1.90 1.75 1.56 1.60 1.58 1.55 1.51 1.50 1.49 1.49 1.54 1.48 1.37 1.35 1.39 1.37 1.36 1.34 1.32 1.37 1.43 1.50 1.62 1.66 1.64 1.71 1.93 2.14 2.08 1.94 1.83 1.77 1.76 1.71 1.68 1.68 1.79 1.84 1.80 1.72 1.71 1.59
1.40 1.62 1.84 1.72 1.67 1.66 1.60 1.65 1.66 1.70 1.69 1.60 1.61 1.60 1.49 1.41 1.36 1.35 1.37 1.26 1.18 1.21 1.31 1.38 1.47 1.57 1.63 1.64 1.75 1.86 1.92 1.98 1.83 1.72 1.76 1.77 1.73 1.70 1.73 1.77 1.77 1.68 1.67 1.62
1.38 1.41 1.53 1.51 1.51 1.56 1.51 1.53 1.67 1.77 1.83 1.79 1.73 1.64 1.52 1.50 1.45 1.37 1.26 1.17 1.16 1.19 1.20 1.25 1.31 1.35 1.41 1.53 1.65 1.71 1.75 1.78 1.79 1.78 1.76 1.77 1.78 1.70 1.64 1.62 1.64 1.56 1.51 1.58
1.39 1.27 1.29 1.48 1.55 1.56 1.62 1.66 1.67 1.63 1.59 1.60 1.58 1.57 1.56 1.51 1.42 1.32 1.24 1.22 1.27 1.32 1.28 1.25 1.27 1.26 1.26 1.33 1.54 1.66 1.66 1.81 1.74 1.73 1.74 1.70 1.75 1.75 1.71 1.70 1.67 1.58 1.50 1.51
1.42 1.34 1.37 1.47 1.50 1.58 1.67 1.59 1.52 1.46 1.45 1.43 1.45 1.44 1.42 1.48 1.45 1.41 1.39 1.33 1.30 1.37 1.37 1.38 1.36 1.31 1.30 1.37 1.47 1.58 1.52 1.58 1.65 1.52 1.54 1.62 1.60 1.63 1.66 1.68 1.64 1.56 1.47 1.48
1.36 1.28 1.37 1.48 1.47 1.53 1.46 1.39 1.33 1.24 1.25 1.35 1.45 1.47 1.43 1.42 1.41 1.45 1.46 1.36 1.27 1.30 1.33 1.37 1.34 1.31 1.31 1.38 1.44 1.55 1.51 1.41 1.42 1.44 1.57 1.62 1.65 1.67 1.71 1.69 1.65 1.64 1.62 1.63
1.32 1.29 1.29 1.29 1.31 1.39 1.31 1.29 1.26 1.27 1.22 1.27 1.38 1.43 1.45 1.44 1.42 1.35 1.36 1.46 1.49 1.46 1.34 1.23 1.27 1.19 1.23 1.38 1.45 1.52 1.58 1.54 1.50 1.48 1.59 1.72 1.75 1.77 1.80 1.78 1.75 1.74 1.70 1.68
1.41 1.44 1.39 1.29 1.28 1.38 1.36 1.28 1.20 1.21 1.19 1.22 1.35 1.45 1.48 1.42 1.38 1.37 1.46 1.53 1.56 1.40 1.17 1.11 1.05 1.07 1.08 1.17 1.29 1.32 1.44 1.52 1.53 1.51 1.55 1.57 1.60 1.62 1.62 1.61 1.62 1.63 1.66 1.73
1.65 1.53 1.44 1.38 1.25 1.21 1.29 1.31 1.30 1.27 1.21 1.23 1.36 1.40 1.43 1.35 1.25 1.31 1.46 1.50 1.41 1.20 1.02 1.08 1.09 1.08 0.99 1.04 1.10 1.13 1.28 1.43 1.50 1.47 1.44 1.47 1.45 1.39 1.37 1.44 1.55 1.65 1.68 1.71
1.63 1.45 1.29 1.20 1.22 1.30 1.27 1.26 1.29 1.34 1.40 1.48 1.46 1.39 1.40 1.38 1.29 1.31 1.31 1.35 1.23 1.17 0.98 0.96 1.04 1.07 1.02 0.94 0.91 1.10 1.24 1.35 1.41 1.41 1.42 1.45 1.49 1.43 1.36 1.40 1.50 1.54 1.58 1.58
1.50 1.36 1.30 1.27 1.30 1.38 1.34 1.31 1.32 1.35 1.41 1.53 1.59 1.57 1.53 1.45 1.37 1.37 1.40 1.24 1.09 1.07 1.01 1.03 1.06 1.02 0.97 0.90 0.92 1.03 1.10 1.18 1.20 1.22 1.25 1.34 1.47 1.52 1.48 1.40 1.34 1.35 1.44 1.49
1.53 1.43 1.38 1.29 1.28 1.38 1.49 1.48 1.42 1.38 1.32 1.38 1.43 1.47 1.48 1.46 1.43 1.35 1.43 1.44 1.25 1.06 1.00 1.09 1.01 0.92 0.93 0.95 1.03 1.08 1.10 1.13 1.14 1.18 1.23 1.32 1.47 1.55 1.50 1.40 1.27 1.21 1.29 1.42
1.53 1.48 1.46 1.44 1.41 1.40 1.41 1.42 1.39 1.33 1.25 1.27 1.22 1.25 1.33 1.41 1.51 1.51 1.49 1.41 1.34 1.21 1.07 1.02 0.99 0.93 0.88 0.95 1.06 1.10 1.09 1.09 1.13 1.19 1.22 1.26 1.31 1.36 1.41 1.37 1.26 1.18 1.17 1.25
1.59 1.47 1.40 1.43 1.46 1.39 1.33 1.36 1.49 1.50 1.45 1.44 1.33 1.24 1.25 1.36 1.46 1.51 1.50 1.39 1.21 1.11 1.03 1.00 0.94 0.91 0.86 0.91 0.99 1.06 1.09 1.11 1.11 1.07 1.04 1.06 1.06 1.03 1.04 1.09 1.13 1.15 1.15 1.12
1.51 1.41 1.35 1.30 1.24 1.17 1.24 1.31 1.40 1.51 1.53 1.48 1.38 1.23 1.22 1.33 1.42 1.41 1.30 1.25 1.15 1.04 0.94 0.83 0.77 0.78 0.81 0.83 0.84 0.86 0.91 0.93 0.96 1.05 1.16 1.21 1.04 0.88 0.83 0.89 0.95 1.01 1.03 1.00